TimeEDT,TemperatureF,Dew PointF,Humidity,Sea Level PressureIn,VisibilityMPH,Wind Direction,Wind SpeedMPH,Gust SpeedMPH,PrecipitationIn,Events,Conditions,WindDirDegrees,DateUTC
12:15 AM,61.7,58.8,90,29.86,5.0,SSW,8.1,-,N/A,,Overcast,210,2013-07-27 04:15:00
12:35 AM,61.7,59.0,91,29.86,5.0,SSW,5.8,-,N/A,,Overcast,210,2013-07-27 04:35:00
12:55 AM,61.9,59.0,90,29.86,5.0,SSW,6.9,-,N/A,,Overcast,210,2013-07-27 04:55:00
1:15 AM,62.1,59.2,90,29.86,7.0,SSW,5.8,-,N/A,,Overcast,200,2013-07-27 05:15:00
1:35 AM,61.9,59.0,90,29.85,7.0,SSW,5.8,-,N/A,,Overcast,210,2013-07-27 05:35:00
1:55 AM,62.2,59.4,90,29.84,5.0,SW,4.6,-,N/A,,Overcast,220,2013-07-27 05:55:00
2:14 AM,61.7,59.0,91,29.84,4.0,SW,3.5,-,N/A,,Overcast,220,2013-07-27 06:14:00
2:35 AM,62.6,59.9,91,29.84,4.0,Calm,Calm,-,N/A,,Overcast,0,2013-07-27 06:35:00
2:55 AM,62.2,59.4,90,29.84,5.0,Calm,Calm,-,N/A,,Overcast,0,2013-07-27 06:55:00
3:15 AM,61.7,58.6,90,29.84,5.0,Calm,Calm,-,N/A,,Overcast,0,2013-07-27 07:15:00
3:35 AM,62.6,59.4,89,29.84,7.0,West,4.6,-,N/A,,Overcast,270,2013-07-27 07:35:00
3:55 AM,62.8,59.0,87,29.84,5.0,Calm,Calm,-,N/A,,Overcast,0,2013-07-27 07:55:00
4:15 AM,61.7,58.1,88,29.84,5.0,Calm,Calm,-,N/A,,Overcast,0,2013-07-27 08:15:00
4:35 AM,61.7,58.6,90,29.84,3.0,Calm,Calm,-,N/A,,Overcast,0,2013-07-27 08:35:00
4:55 AM,61.7,59.0,91,29.84,2.5,Calm,Calm,-,N/A,,Overcast,0,2013-07-27 08:55:00
5:15 AM,61.7,58.5,89,29.84,10.0,NNW,3.5,-,N/A,,Overcast,340,2013-07-27 09:15:00
5:35 AM,61.2,57.9,89,29.84,10.0,NNW,3.5,-,N/A,,Overcast,340,2013-07-27 09:35:00
5:55 AM,59.0,55.9,90,29.85,10.0,Calm,Calm,-,N/A,,Mostly Cloudy,0,2013-07-27 09:55:00
6:15 AM,59.0,56.3,91,29.85,10.0,Calm,Calm,-,N/A,,Overcast,0,2013-07-27 10:15:00
6:35 AM,59.0,55.9,90,29.85,10.0,Calm,Calm,-,N/A,,Overcast,0,2013-07-27 10:35:00
6:55 AM,59.0,55.8,89,29.86,10.0,NNW,5.8,-,N/A,,Overcast,340,2013-07-27 10:55:00
7:15 AM,59.0,56.3,91,29.86,0.2,NNW,5.8,-,N/A,Fog,Fog,330,2013-07-27 11:15:00
7:35 AM,58.6,56.1,91,29.86,0.2,North,3.5,-,N/A,Fog,Fog,350,2013-07-27 11:35:00
7:55 AM,59.0,56.5,91,29.85,0.2,NNW,4.6,-,N/A,Fog,Fog,340,2013-07-27 11:55:00
8:15 AM,57.6,55.2,92,29.85,0.2,North,3.5,-,N/A,Fog,Fog,360,2013-07-27 12:15:00
8:35 AM,57.9,55.6,92,29.85,2.5,NW,4.6,-,N/A,,Overcast,320,2013-07-27 12:35:00
8:55 AM,59.0,56.5,91,29.85,4.0,NW,4.6,-,N/A,,Overcast,320,2013-07-27 12:55:00
9:15 AM,59.0,55.9,90,29.85,4.0,Calm,Calm,-,N/A,,Overcast,0,2013-07-27 13:15:00
9:35 AM,59.0,55.8,89,29.85,5.0,Calm,Calm,-,N/A,,Overcast,0,2013-07-27 13:35:00
9:55 AM,59.0,55.6,88,29.85,5.0,Calm,Calm,-,N/A,,Overcast,0,2013-07-27 13:55:00
10:15 AM,59.0,55.0,87,29.85,10.0,Calm,Calm,-,N/A,,Overcast,0,2013-07-27 14:15:00
10:35 AM,61.7,57.2,85,29.84,10.0,West,3.5,-,N/A,,Overcast,280,2013-07-27 14:35:00
10:54 AM,61.5,57.0,85,29.84,10.0,WNW,4.6,-,N/A,,Overcast,300,2013-07-27 14:54:00
11:15 AM,59.9,55.9,87,29.84,10.0,WNW,4.6,-,N/A,,Overcast,300,2013-07-27 15:15:00
11:35 AM,59.9,55.9,87,29.84,7.0,NNW,5.8,-,N/A,,Overcast,330,2013-07-27 15:35:00
11:55 AM,62.6,56.5,80,29.83,10.0,Calm,Calm,-,N/A,,Overcast,0,2013-07-27 15:55:00
12:15 PM,62.8,55.4,77,29.82,10.0,NW,8.1,-,N/A,,Overcast,320,2013-07-27 16:15:00
12:35 PM,62.6,55.6,78,29.82,10.0,WNW,4.6,-,N/A,,Overcast,290,2013-07-27 16:35:00
12:55 PM,62.8,54.5,74,29.82,10.0,NW,5.8,-,N/A,,Overcast,320,2013-07-27 16:55:00
1:15 PM,64.2,54.7,71,29.81,10.0,NNW,4.6,-,N/A,,Overcast,330,2013-07-27 17:15:00
1:35 PM,61.7,55.0,79,29.82,10.0,WNW,12.7,18.4,N/A,,Overcast,300,2013-07-27 17:35:00
1:55 PM,65.3,55.8,71,29.82,10.0,NW,11.5,-,N/A,,Mostly Cloudy,310,2013-07-27 17:55:00
2:15 PM,64.4,55.4,73,29.82,10.0,NW,12.7,16.1,N/A,,Overcast,320,2013-07-27 18:15:00
2:35 PM,64.0,55.0,73,29.82,10.0,NW,11.5,17.3,N/A,,Overcast,310,2013-07-27 18:35:00
2:55 PM,62.8,54.1,73,29.82,10.0,WNW,9.2,-,N/A,,Overcast,290,2013-07-27 18:55:00
3:15 PM,61.7,54.1,76,29.82,10.0,WNW,13.8,-,N/A,,Overcast,300,2013-07-27 19:15:00
3:34 PM,61.7,53.8,75,29.82,10.0,WNW,10.4,-,N/A,,Overcast,300,2013-07-27 19:34:00
3:55 PM,61.7,54.7,78,29.82,10.0,WNW,11.5,-,N/A,,Overcast,290,2013-07-27 19:55:00
4:15 PM,61.7,53.8,75,29.82,10.0,West,11.5,-,N/A,,Overcast,280,2013-07-27 20:15:00
4:34 PM,59.0,52.2,78,29.82,10.0,NW,9.2,-,N/A,,Overcast,310,2013-07-27 20:34:00
4:55 PM,58.5,54.1,86,29.82,4.0,WNW,9.2,-,N/A,Rain,Rain,290,2013-07-27 20:55:00
5:15 PM,59.0,53.2,81,29.82,10.0,WNW,10.4,-,N/A,,Overcast,290,2013-07-27 21:15:00
5:34 PM,59.0,53.1,81,29.82,7.0,NW,10.4,18.4,N/A,,Overcast,310,2013-07-27 21:34:00
5:55 PM,56.5,50.5,80,29.83,10.0,WNW,9.2,-,N/A,,Overcast,290,2013-07-27 21:55:00
6:15 PM,56.8,51.1,81,29.83,10.0,West,10.4,-,N/A,,Overcast,270,2013-07-27 22:15:00
6:34 PM,56.5,51.3,83,29.83,10.0,West,11.5,-,N/A,,Overcast,280,2013-07-27 22:34:00
6:55 PM,56.5,50.9,82,29.83,10.0,West,9.2,-,N/A,,Overcast,280,2013-07-27 22:55:00
7:15 PM,56.5,51.4,83,29.83,7.0,West,6.9,-,N/A,Rain,Rain,280,2013-07-27 23:15:00
7:35 PM,54.3,49.8,85,29.83,10.0,West,8.1,-,N/A,,Drizzle,280,2013-07-27 23:35:00
7:55 PM,56.5,51.1,82,29.83,10.0,West,8.1,-,N/A,,Overcast,280,2013-07-27 23:55:00
8:15 PM,56.5,50.9,82,29.83,10.0,West,6.9,-,N/A,,Overcast,280,2013-07-28 00:15:00
8:35 PM,56.3,51.6,84,29.84,10.0,West,3.5,-,N/A,,Overcast,280,2013-07-28 00:35:00
8:55 PM,54.0,50.2,87,29.83,7.0,Calm,Calm,-,N/A,,Drizzle,0,2013-07-28 00:55:00
9:15 PM,54.0,50.0,86,29.83,10.0,WSW,3.5,-,N/A,,Light Drizzle,240,2013-07-28 01:15:00
9:35 PM,54.0,49.5,85,29.83,10.0,WSW,5.8,-,N/A,,Overcast,250,2013-07-28 01:35:00
9:55 PM,54.0,48.4,81,29.83,10.0,West,6.9,-,N/A,,Overcast,260,2013-07-28 01:55:00
10:15 PM,54.0,48.2,81,29.83,10.0,West,4.6,-,N/A,,Overcast,260,2013-07-28 02:15:00
10:35 PM,54.0,48.4,81,29.83,10.0,WSW,3.5,-,N/A,,Overcast,250,2013-07-28 02:35:00
10:55 PM,54.0,48.7,82,29.82,10.0,West,4.6,-,N/A,,Overcast,260,2013-07-28 02:55:00
11:15 PM,54.0,48.6,82,29.82,10.0,West,3.5,-,N/A,,Overcast,260,2013-07-28 03:15:00
11:35 PM,54.0,49.1,84,29.81,10.0,West,3.5,-,N/A,,Overcast,260,2013-07-28 03:35:00
11:55 PM,54.0,49.1,84,29.81,10.0,WSW,5.8,-,N/A,,Overcast,250,2013-07-28 03:55:00